Wind_Speed
17 20 24 19 17 16 14 8 11 11 17 17 20 24 21 22 26 25 20 18 20 20 25 28 29 30 30 27 27 27 25 25 25 25 25 27 28 29 30 31 32 29 28 28
21 24 19 15 15 22 15 12 11 8 12 18 23 30 26 25 25 23 21 23 22 23 28 30 30 28 25 24 22 23 22 21 22 23 25 26 27 29 29 30 29 28 28 28
22 10 15 19 19 19 25 22 17 10 10 18 22 29 23 20 18 18 19 19 19 23 27 28 25 20 19 20 20 21 22 22 22 22 22 23 24 27 27 26 24 22 22 24
16 16 11 21 23 21 23 22 23 18 14 8 10 9 14 13 11 11 14 16 16 15 17 16 15 18 18 19 20 22 22 23 23 23 23 23 23 23 23 22 19 19 21 23
16 18 18 18 18 16 17 14 12 12 15 17 22 12 7 4 6 8 11 10 13 12 17 15 13 15 19 22 23 24 23 23 20 19 17 16 17 18 18 18 17 16 17 18
17 10 18 20 16 16 10 10 10 8 8 7 20 18 6 8 5 10 12 11 11 12 12 12 13 16 19 21 22 21 19 15 14 13 13 13 14 15 15 15 15 16 18 20
20 18 18 16 17 18 18 14 4 3 4 6 3 14 10 7 12 9 10 10 9 15 15 14 14 16 16 17 16 16 16 15 15 14 13 14 15 15 16 17 18 19 20 22
21 12 23 22 25 22 28 25 6 6 4 3 7 9 5 14 15 14 14 17 18 20 16 17 14 14 12 12 12 14 15 17 18 18 18 18 19 19 19 19 20 21 22 22
21 15 18 16 24 26 24 28 15 3 4 1 7 7 7 11 18 17 20 19 22 20 18 20 19 17 14 15 18 20 21 21 20 20 22 21 20 21 21 20 20 20 21 21
11 10 18 23 25 24 13 26 17 10 3 4 5 6 9 10 10 10 9 13 15 14 15 15 17 15 16 19 22 23 22 20 20 20 21 22 22 23 23 21 20 20 21 23
19 11 18 27 28 33 25 23 16 10 9 4 0 3 3 2 3 10 11 11 10 12 13 12 14 16 16 18 24 28 30 29 26 24 23 23 23 23 24 23 23 23 23 25
28 14 13 25 19 22 33 26 27 10 5 11 8 9 8 5 4 3 4 7 10 10 11 15 19 22 25 32 31 30 32 31 29 27 26 25 25 26 27 27 26 27 28 31
35 16 9 13 20 25 29 32 30 28 23 19 8 2 7 14 3 4 9 12 18 21 21 24 27 34 40 36 36 35 32 31 30 27 26 26 27 28 30 31 32 33 32 30
30 23 26 17 12 23 33 32 34 36 31 26 31 19 20 13 19 26 29 28 29 37 40 42 40 39 38 39 39 33 30 32 31 28 26 28 29 31 33 34 36 36 39 35
17 12 24 14 11 12 13 24 31 31 34 29 24 29 32 35 34 32 32 36 40 40 38 40 41 42 41 40 34 29 29 30 29 29 30 30 32 34 36 37 37 39 40 38
15 10 9 16 17 17 20 19 18 19 22 30 32 37 30 33 37 39 37 38 40 39 39 39 41 40 34 34 32 32 32 32 32 34 33 34 35 36 38 39 40 42 44 41
21 17 16 20 20 20 23 31 29 29 31 31 36 37 30 32 35 39 39 38 38 35 31 30 25 33 34 33 32 31 35 37 36 35 38 37 37 39 40 42 42 44 45 47
20 19 18 13 14 4 16 22 20 21 24 25 28 31 34 40 38 33 32 34 35 34 32 32 37 42 32 32 35 33 31 32 35 37 37 39 39 40 43 46 42 41 42 33
25 24 15 11 23 23 20 12 15 19 32 29 35 35 31 24 27 33 28 20 21 22 25 26 28 34 39 39 36 35 33 33 34 36 36 37 39 41 44 40 38 35 28 16
27 26 28 16 8 10 30 21 15 16 39 26 29 28 27 29 34 37 30 31 36 33 31 34 32 29 34 35 33 33 34 34 34 33 33 35 38 40 36 35 32 22 14 19
31 29 31 29 17 24 31 24 20 22 47 30 20 24 25 26 29 36 34 32 29 32 30 30 29 30 34 36 35 33 33 32 32 32 34 36 34 31 30 24 14 14 19 23
26 25 30 27 15 21 42 32 34 38 21 24 29 30 31 33 37 38 39 39 38 39 40 38 34 36 38 38 39 38 33 31 32 37 32 30 27 26 21 12 13 17 22 23
26 33 29 31 32 33 28 24 19 22 32 39 41 42 44 42 42 43 43 43 42 41 40 39 35 37 38 40 40 37 43 32 32 27 23 21 21 16 10 14 18 20 22 25
31 32 33 35 45 46 44 43 41 42 45 46 48 45 44 42 42 43 44 44 46 46 44 40 39 38 37 39 44 36 35 28 20 18 18 19 13 9 13 18 20 22 24 26
29 31 38 42 46 45 44 43 42 42 43 43 39 36 39 38 39 42 44 44 45 41 36 36 38 38 41 43 36 29 19 14 12 15 15 7 8 15 18 18 20 23 25 25
35 39 45 49 42 41 42 41 41 39 38 38 40 42 40 42 45 47 48 46 42 41 41 41 39 40 43 31 20 15 13 12 13 10 8 13 15 14 15 19 22 23 23 23
Wind_Direction
217 218 223 228 232 222 198 217 233 235 244 252 259 261 250 247 255 254 261 264 261 263 261 268 271 275 278 282 280 282 280 280 278 276 273 271 271 274 277 280 282 283 285 285
217 226 227 226 222 208 204 199 192 231 247 262 265 262 259 257 255 260 262 260 262 260 264 266 268 274 285 279 278 278 280 280 280 279 276 274 272 272 274 276 279 281 282 285
223 219 225 219 214 216 222 221 206 221 248 268 286 284 274 265 260 253 257 256 256 257 263 267 277 280 276 277 278 280 283 284 283 281 280 280 279 278 276 278 281 283 284 283
224 217 207 208 216 222 232 234 232 225 248 256 281 287 261 261 255 262 266 271 267 263 271 270 267 271 276 279 283 286 286 287 287 285 282 284 281 276 276 275 275 278 279 281
209 208 202 205 220 224 234 240 231 235 247 266 257 253 280 194 219 259 258 254 238 266 263 259 262 269 278 286 290 293 291 289 287 285 283 276 272 268 270 273 275 278 281 285
213 212 200 210 216 212 225 213 208 212 229 259 252 224 251 224 204 217 243 237 260 276 260 257 264 278 290 294 297 298 300 295 293 288 281 271 264 265 268 271 274 279 281 283
207 213 208 198 209 198 207 181 147 212 213 230 179 210 226 167 169 193 225 235 255 282 291 252 282 298 298 301 300 297 296 291 290 286 278 270 266 265 265 268 272 276 280 283
186 196 205 207 203 197 205 195 196 199 205 259 174 229 266 209 239 255 263 269 275 283 282 253 300 294 302 310 304 301 299 295 290 284 279 276 272 270 269 272 277 283 285 285
191 199 198 207 207 202 207 208 219 267 237 237 221 248 234 216 261 259 257 263 284 277 276 255 289 286 298 301 296 294 301 302 291 282 277 275 274 274 273 274 283 288 286 284
192 185 189 194 195 205 207 203 219 219 169 237 258 243 237 249 274 271 260 265 277 268 272 268 266 281 297 300 296 305 311 307 299 286 277 274 274 274 271 273 286 287 283 282
189 192 186 196 199 200 201 200 212 215 228 176 225 233 149 311 226 225 228 253 265 264 268 267 265 283 302 298 298 295 299 299 299 297 287 277 274 272 268 272 285 286 285 286
194 213 193 194 207 213 217 215 209 210 208 228 252 242 177 228 172 212 305 285 290 278 264 266 272 281 295 306 305 303 297 294 286 289 289 277 270 270 268 269 276 283 284 288
204 210 160 195 217 213 217 219 223 233 250 248 224 246 134 196 120 278 271 269 277 282 282 283 278 288 296 297 302 300 292 289 283 276 283 280 272 270 269 271 275 279 287 291
202 209 206 211 230 223 222 232 230 232 240 247 240 240 226 215 265 281 284 288 289 286 283 287 288 290 289 295 297 295 284 283 282 272 278 280 275 272 271 274 276 280 289 288
214 191 199 219 230 208 221 231 229 230 238 242 252 258 261 267 273 277 276 281 284 283 282 282 284 286 288 293 291 288 286 278 279 275 276 278 278 275 275 278 280 284 295 286
196 206 207 221 233 248 248 234 223 229 238 250 259 265 276 282 286 291 290 289 286 287 289 290 288 293 293 292 291 287 283 282 280 275 274 276 275 276 276 278 280 286 286 287
203 204 206 236 251 251 255 243 241 250 257 265 267 281 291 290 291 295 298 294 293 290 291 286 275 299 294 290 296 296 286 280 280 281 274 271 274 274 276 277 278 282 287 285
219 225 227 243 230 265 249 265 251 253 264 267 277 291 300 303 305 305 299 293 286 287 281 275 273 291 288 284 286 289 288 284 279 278 273 269 269 272 273 273 276 284 283 268
223 219 211 196 207 247 250 216 233 249 275 280 285 295 302 299 295 285 293 287 298 292 289 285 282 283 290 291 285 283 284 283 279 273 272 270 271 273 274 277 280 277 262 274
223 224 227 211 215 217 265 259 242 253 268 285 298 294 291 295 289 291 294 288 292 290 289 287 287 290 289 299 295 286 282 281 277 273 270 271 271 271 273 275 271 261 284 284
209 210 213 217 226 251 254 260 260 226 275 301 286 288 283 291 296 293 290 289 285 287 291 297 286 285 300 302 302 290 283 279 274 268 265 265 267 268 268 258 260 283 276 278
215 210 222 222 239 259 268 252 238 280 280 277 284 289 289 292 292 292 290 288 286 284 288 287 284 283 289 300 304 296 284 275 274 264 258 262 265 261 247 259 274 278 273 279
226 234 233 230 243 259 272 273 260 270 283 286 287 287 290 288 291 286 287 289 284 283 284 286 284 285 288 295 301 296 287 275 272 266 258 255 245 244 270 277 269 274 279 284
244 246 244 250 255 260 267 271 271 275 277 277 279 281 282 281 286 284 281 284 285 283 285 283 285 286 286 290 299 288 277 269 258 251 244 233 242 266 271 269 273 277 284 293
256 257 255 260 262 264 268 274 277 279 279 278 277 276 285 281 288 282 280 287 287 280 276 276 283 283 288 295 289 276 259 248 236 229 232 253 264 255 256 267 280 289 294 294
254 260 257 258 274 273 273 277 283 280 279 278 278 279 282 279 282 281 278 285 282 275 276 277 282 287 289 278 263 232 206 197 224 244 249 244 248 263 279 286 291 293 294 297
Height
3114 3117 3118 3123 3126 3128 3129 3131 3133 3134 3134 3135 3133 3133 3135 3138 3137 3139 3143 3145 3147 3147 3144 3144 3145 3144 3144 3144 3144 3143 3143 3142 3142 3142 3142 3141 3141 3139 3139 3138 3135 3136 3137 3136
3112 3111 3118 3121 3124 3126 3127 3129 3131 3132 3132 3132 3130 3126 3129 3131 3132 3134 3136 3137 3140 3140 3138 3139 3139 3140 3140 3139 3138 3137 3137 3137 3137 3136 3135 3134 3134 3133 3132 3131 3131 3131 3130 3130
3106 3110 3114 3117 3120 3122 3124 3126 3128 3130 3129 3129 3126 3121 3121 3124 3126 3127 3129 3130 3132 3133 3132 3132 3134 3135 3134 3133 3133 3133 3132 3132 3131 3131 3129 3128 3127 3126 3125 3125 3125 3126 3125 3124
3104 3106 3110 3114 3117 3120 3122 3124 3125 3127 3128 3129 3126 3122 3117 3120 3121 3123 3124 3125 3127 3127 3128 3129 3129 3130 3129 3128 3128 3127 3126 3126 3126 3125 3124 3122 3121 3120 3119 3119 3121 3121 3120 3119
3100 3102 3105 3110 3114 3118 3120 3122 3123 3125 3126 3126 3123 3126 3111 3114 3116 3118 3118 3121 3123 3124 3125 3125 3126 3126 3125 3124 3123 3122 3120 3120 3120 3119 3119 3118 3117 3116 3115 3115 3116 3116 3115 3114
3099 3102 3104 3106 3113 3116 3119 3121 3123 3123 3124 3122 3116 3118 3111 3109 3110 3113 3114 3116 3119 3122 3122 3122 3123 3122 3120 3119 3118 3116 3115 3115 3115 3115 3115 3114 3113 3112 3112 3112 3112 3111 3111 3110
3096 3099 3101 3103 3108 3113 3116 3120 3123 3124 3122 3113 3111 3114 3108 3109 3108 3109 3111 3114 3116 3118 3119 3119 3119 3117 3116 3115 3114 3113 3112 3112 3112 3112 3112 3111 3111 3110 3109 3109 3108 3107 3106 3105
3089 3095 3096 3098 3102 3106 3110 3115 3114 3115 3115 3110 3109 3105 3101 3106 3107 3107 3110 3110 3113 3114 3114 3116 3115 3114 3113 3112 3112 3111 3110 3110 3109 3108 3108 3108 3107 3107 3106 3105 3104 3103 3102 3100
3083 3088 3090 3094 3098 3103 3107 3109 3112 3110 3110 3109 3101 3100 3101 3103 3103 3106 3105 3107 3109 3108 3109 3111 3111 3110 3109 3109 3109 3108 3107 3106 3105 3103 3103 3103 3102 3102 3101 3100 3099 3098 3097 3095
3079 3084 3086 3090 3094 3099 3101 3107 3109 3108 3110 3109 3097 3096 3098 3100 3100 3099 3102 3104 3104 3105 3106 3107 3106 3106 3105 3105 3104 3103 3102 3101 3099 3098 3097 3097 3096 3096 3095 3094 3093 3092 3091 3089
3076 3078 3084 3086 3086 3091 3097 3099 3102 3102 3100 3098 3099 3094 3094 3095 3096 3097 3099 3100 3101 3102 3103 3103 3102 3101 3102 3101 3101 3099 3097 3095 3094 3092 3091 3090 3090 3089 3089 3088 3087 3085 3084 3082
3072 3075 3079 3081 3084 3088 3092 3093 3096 3095 3095 3095 3093 3090 3091 3094 3096 3097 3097 3098 3099 3099 3098 3098 3098 3098 3097 3096 3094 3092 3090 3088 3087 3085 3084 3083 3083 3082 3082 3081 3079 3078 3076 3074
3067 3070 3075 3080 3083 3083 3083 3087 3090 3092 3092 3089 3093 3090 3088 3090 3092 3094 3094 3094 3095 3094 3095 3096 3095 3093 3091 3089 3087 3085 3083 3081 3079 3078 3077 3075 3075 3075 3074 3073 3072 3070 3068 3066
3062 3064 3068 3070 3072 3074 3076 3079 3082 3086 3086 3086 3083 3086 3086 3086 3087 3088 3090 3090 3089 3090 3090 3089 3087 3086 3083 3081 3080 3077 3075 3073 3071 3070 3069 3068 3067 3067 3066 3065 3064 3062 3060 3058
3058 3058 3063 3067 3070 3071 3072 3074 3077 3077 3079 3079 3082 3080 3082 3082 3082 3084 3084 3084 3083 3082 3081 3080 3078 3076 3074 3072 3070 3069 3067 3065 3063 3063 3062 3061 3060 3058 3058 3057 3055 3053 3052 3049
3056 3059 3063 3066 3067 3069 3069 3071 3071 3072 3073 3073 3075 3071 3077 3076 3076 3076 3076 3073 3070 3069 3069 3069 3067 3066 3064 3062 3060 3059 3058 3056 3055 3054 3052 3051 3051 3050 3049 3047 3046 3044 3042 3040
3055 3057 3061 3062 3064 3064 3062 3063 3066 3067 3067 3069 3066 3068 3070 3067 3067 3066 3064 3062 3060 3061 3061 3058 3057 3056 3055 3054 3052 3049 3046 3045 3044 3043 3043 3042 3041 3040 3039 3038 3035 3034 3032 3029
3050 3054 3058 3059 3061 3061 3053 3056 3059 3060 3061 3062 3060 3060 3059 3056 3055 3054 3054 3051 3049 3049 3049 3048 3047 3045 3044 3042 3040 3039 3036 3034 3033 3032 3031 3031 3031 3030 3028 3026 3024 3023 3021 3019
3046 3049 3052 3054 3054 3049 3045 3049 3052 3053 3051 3056 3053 3052 3051 3049 3045 3043 3046 3044 3041 3040 3038 3037 3036 3034 3033 3032 3030 3028 3026 3024 3022 3021 3020 3020 3020 3020 3018 3016 3014 3013 3012 3011
3042 3044 3048 3048 3047 3044 3036 3042 3047 3051 3034 3048 3046 3043 3041 3040 3035 3032 3035 3035 3033 3031 3028 3027 3026 3024 3023 3021 3018 3017 3015 3013 3012 3010 3010 3010 3010 3009 3008 3007 3006 3005 3004 3006
3033 3035 3036 3037 3038 3031 3031 3035 3042 3043 3028 3038 3036 3036 3034 3031 3030 3024 3023 3023 3022 3020 3019 3018 3016 3014 3012 3010 3008 3006 3003 3001 3001 3000 3000 3000 3000 3000 3000 2999 2998 2999 3001 3001
3023 3028 3029 3033 3033 3022 3024 3026 3028 3025 3025 3027 3026 3025 3023 3021 3019 3017 3014 3012 3011 3010 3009 3008 3006 3004 3003 3002 2999 2996 2994 2992 2991 2989 2989 2990 2991 2992 2992 2991 2993 2994 2995 2995
3018 3017 3019 3020 3015 3014 3013 3015 3016 3016 3016 3017 3016 3015 3012 3010 3008 3005 3002 3000 2998 2998 2996 2995 2995 2994 2993 2991 2989 2986 2984 2982 2981 2982 2983 2984 2985 2986 2986 2988 2989 2990 2988 2988
3006 3009 3009 3010 3004 3004 3006 3008 3008 3008 3007 3006 3005 3002 3001 2998 2997 2994 2992 2989 2987 2986 2985 2984 2983 2982 2982 2980 2978 2976 2975 2974 2974 2976 2978 2979 2979 2981 2984 2985 2984 2984 2982 2980
3000 3001 2998 2996 2993 2994 2995 2996 2997 2996 2995 2992 2991 2990 2988 2986 2984 2980 2978 2976 2974 2973 2973 2973 2972 2971 2970 2968 2966 2966 2967 2969 2971 2973 2974 2974 2976 2979 2979 2979 2979 2977 2975 2974
2986 2986 2985 2979 2985 2982 2980 2982 2981 2980 2980 2981 2979 2977 2975 2973 2970 2967 2965 2963 2962 2961 2961 2961 2961 2959 2959 2957 2958 2961 2963 2964 2968 2970 2971 2972 2974 2974 2974 2974 2973 2971 2969 2966